Radiation Dose at Monitoring Post of Fukushima Daini Nuclear Power Station
Date,Time,MP-1(microSv/h),MP-2(microSv/h),MP-3(microSv/h),MP-4(microSv/h),MP-5(microSv/h),MP-6(microSv/h),MP-7(microSv/h),Wind Direction,Wind Velocity(m/s),Rain
2019/11/27,00:00,0.179,0.162,0.273,0.253,0.252,0.140,0.086,west-southwest,1.3,No
2019/11/27,00:10,0.179,0.162,0.273,0.254,0.251,0.140,0.085,west-southwest,2.2,No
2019/11/27,00:20,0.180,0.162,0.272,0.255,0.252,0.139,0.087,southwest,2.4,No
2019/11/27,00:30,0.179,0.163,0.272,0.255,0.254,0.140,0.086,west-southwest,2.2,No
2019/11/27,00:40,0.179,0.163,0.272,0.254,0.252,0.139,0.086,west-southwest,1.7,No
2019/11/27,00:50,0.179,0.163,0.273,0.255,0.253,0.141,0.086,west-southwest,1.9,No
2019/11/27,01:00,0.179,0.162,0.272,0.254,0.251,0.139,0.086,west-southwest,2.7,No
2019/11/27,01:10,0.178,0.162,0.272,0.255,0.252,0.140,0.086,west-southwest,2.9,No
2019/11/27,01:20,0.179,0.162,0.272,0.255,0.252,0.139,0.086,west-southwest,3.1,No
2019/11/27,01:30,0.178,0.162,0.273,0.255,0.252,0.139,0.086,west-southwest,3.8,No
2019/11/27,01:40,0.179,0.163,0.272,0.255,0.252,0.140,0.086,west-southwest,4.5,No
2019/11/27,01:50,0.179,0.163,0.272,0.254,0.253,0.141,0.087,west-southwest,4.7,No
2019/11/27,02:00,0.180,0.163,0.272,0.256,0.252,0.140,0.085,west-southwest,4.8,No
2019/11/27,02:10,0.178,0.162,0.273,0.255,0.251,0.139,0.086,west-southwest,4.2,No
2019/11/27,02:20,0.180,0.163,0.272,0.253,0.252,0.140,0.086,west-southwest,4.3,No
2019/11/27,02:30,0.179,0.162,0.272,0.255,0.252,0.140,0.086,west-southwest,3.5,No
2019/11/27,02:40,0.179,0.162,0.272,0.254,0.251,0.140,0.086,west-southwest,2.7,No
2019/11/27,02:50,0.180,0.161,0.272,0.254,0.251,0.139,0.086,west-southwest,2.9,No
2019/11/27,03:00,0.180,0.163,0.272,0.255,0.252,0.140,0.086,west-southwest,3.0,No
2019/11/27,03:10,0.179,0.161,0.273,0.255,0.252,0.139,0.086,west-southwest,2.6,No
2019/11/27,03:20,0.179,0.162,0.272,0.255,0.252,0.139,0.085,southwest,2.0,No
2019/11/27,03:30,0.178,0.163,0.273,0.254,0.253,0.139,0.086,southwest,1.8,No
2019/11/27,03:40,0.179,0.163,0.272,0.254,0.252,0.139,0.086,south,1.3,No
2019/11/27,03:50,0.180,0.162,0.273,0.255,0.252,0.140,0.087,south,1.5,No
2019/11/27,04:00,0.179,0.162,0.272,0.255,0.252,0.139,0.086,south-southeast,1.3,No
2019/11/27,04:10,0.178,0.162,0.273,0.254,0.251,0.140,0.086,southeast,1.1,No
2019/11/27,04:20,0.179,0.163,0.272,0.254,0.252,0.139,0.086,southeast,1.4,No
2019/11/27,04:30,0.180,0.163,0.271,0.254,0.253,0.139,0.086,southeast,1.6,No
2019/11/27,04:40,0.179,0.163,0.272,0.255,0.252,0.140,0.087,southeast,1.2,No
2019/11/27,04:50,0.179,0.162,0.273,0.255,0.253,0.139,0.086,south-southeast,1.2,No
2019/11/27,05:00,0.179,0.163,0.274,0.255,0.252,0.139,0.085,southeast,1.4,No
2019/11/27,05:10,0.179,0.162,0.273,0.255,0.252,0.140,0.086,south-southeast,1.2,No
2019/11/27,05:20,0.179,0.162,0.273,0.254,0.252,0.140,0.086,south-southeast,0.8,No
2019/11/27,05:30,0.179,0.163,0.274,0.254,0.252,0.140,0.086,south-southeast,1.1,No
2019/11/27,05:40,0.179,0.164,0.273,0.254,0.253,0.140,0.086,south,1.5,No
2019/11/27,05:50,0.179,0.162,0.273,0.254,0.251,0.140,0.085,south-southeast,1.1,No
2019/11/27,06:00,0.179,0.162,0.273,0.254,0.253,0.140,0.086,southeast,0.8,No
2019/11/27,06:10,0.179,0.163,0.272,0.254,0.252,0.140,0.086,south-southeast,1.1,No
2019/11/27,06:20,0.179,0.162,0.272,0.254,0.252,0.140,0.086,south-southeast,1.3,No
2019/11/27,06:30,0.180,0.161,0.271,0.254,0.252,0.141,0.087,south-southeast,1.9,No
2019/11/27,06:40,0.179,0.162,0.273,0.255,0.253,0.140,0.085,south-southeast,1.4,No
2019/11/27,06:50,0.179,0.162,0.272,0.255,0.253,0.141,0.085,south,1.7,No
2019/11/27,07:00,0.178,0.161,0.272,0.254,0.252,0.140,0.086,south,1.5,No
2019/11/27,07:10,0.179,0.163,0.272,0.254,0.253,0.140,0.086,south-southwest,1.4,No
2019/11/27,07:20,0.178,0.163,0.273,0.255,0.253,0.140,0.086,south-southwest,1.3,No
2019/11/27,07:30,0.179,0.163,0.271,0.255,0.254,0.139,0.086,southwest,1.7,No
2019/11/27,07:40,0.179,0.164,0.271,0.253,0.253,0.139,0.086,southwest,1.5,No
2019/11/27,07:50,0.178,0.164,0.272,0.254,0.251,0.140,0.087,south-southwest,1.8,Yes
2019/11/27,08:00,0.179,0.162,0.272,0.255,0.254,0.140,0.086,south-southwest,0.9,Yes
2019/11/27,08:10,0.178,0.163,0.271,0.253,0.253,0.140,0.086,south,1.5,No
2019/11/27,08:20,0.180,0.163,0.273,0.254,0.253,0.140,0.087,south-southeast,1.5,No
2019/11/27,08:30,0.179,0.162,0.272,0.255,0.254,0.140,0.086,south,2.3,No
2019/11/27,08:40,0.180,0.162,0.272,0.254,0.253,0.139,0.086,south-southeast,2.1,Yes
2019/11/27,08:50,0.179,0.163,0.273,0.254,0.252,0.140,0.088,south-southeast,1.7,No
2019/11/27,09:00,0.180,0.163,0.272,0.255,0.253,0.141,0.086,south-southeast,1.2,No
2019/11/27,09:10,0.180,0.162,0.271,0.255,0.253,0.140,0.086,south,0.9,No
2019/11/27,09:20,0.179,0.163,0.273,0.255,0.254,0.139,0.087,south,0.9,Yes
2019/11/27,09:30,0.179,0.162,0.271,0.255,0.253,0.140,0.086,-,CALM,No
2019/11/27,09:40,0.180,0.164,0.272,0.254,0.254,0.140,0.086,-,CALM,No
2019/11/27,09:50,0.179,0.163,0.273,0.255,0.254,0.140,0.086,northeast,0.6,No
2019/11/27,10:00,0.180,0.163,0.271,0.254,0.251,0.139,0.087,north-northwest,1.1,No
2019/11/27,10:10,0.180,0.163,0.272,0.254,0.255,0.141,0.086,north-northwest,1.1,No
2019/11/27,10:20,0.180,0.162,0.273,0.254,0.252,0.140,0.087,north,1.8,No
2019/11/27,10:30,0.180,0.164,0.273,0.256,0.254,0.141,0.087,north,1.4,No
2019/11/27,10:40,0.180,0.163,0.274,0.255,0.253,0.141,0.087,northwest,2.5,No
2019/11/27,10:50,0.180,0.162,0.274,0.256,0.253,0.141,0.088,northwest,1.8,Yes
2019/11/27,11:00,0.181,0.165,0.273,0.256,0.256,0.140,0.087,north-northwest,1.7,Yes
2019/11/27,11:10,0.181,0.164,0.274,0.256,0.255,0.141,0.087,north,2.4,Yes
2019/11/27,11:20,0.182,0.164,0.274,0.256,0.255,0.142,0.088,north-northwest,2.2,Yes
2019/11/27,11:30,0.181,0.166,0.274,0.258,0.256,0.142,0.088,north-northwest,1.8,Yes
2019/11/27,11:40,0.181,0.165,0.274,0.256,0.255,0.143,0.088,north-northwest,1.7,No
2019/11/27,11:50,0.181,0.164,0.275,0.258,0.256,0.142,0.089,north-northwest,1.5,Yes
2019/11/27,12:00,0.182,0.165,0.275,0.257,0.256,0.144,0.089,north-northwest,1.0,Yes
2019/11/27,12:10,0.182,0.166,0.275,0.258,0.255,0.143,0.089,north,1.3,Yes
2019/11/27,12:20,0.182,0.166,0.276,0.260,0.256,0.143,0.090,north-northwest,0.9,Yes
2019/11/27,12:30,0.184,0.169,0.277,0.258,0.256,0.145,0.091,north-northwest,1.6,Yes
2019/11/27,12:40,0.183,0.168,0.277,0.257,0.256,0.144,0.090,northwest,2.3,No
2019/11/27,12:50,0.183,0.167,0.276,0.259,0.257,0.143,0.090,north,2.3,Yes
2019/11/27,13:00,0.182,0.167,0.275,0.257,0.256,0.143,0.090,north-northwest,3.7,Yes
2019/11/27,13:10,0.184,0.166,0.275,0.258,0.256,0.144,0.089,north-northwest,2.5,Yes
2019/11/27,13:20,0.183,0.167,0.278,0.258,0.256,0.143,0.089,north-northwest,2.0,Yes
2019/11/27,13:30,0.184,0.170,0.277,0.258,0.256,0.146,0.091,north-northwest,2.1,Yes
2019/11/27,13:40,0.184,0.169,0.277,0.259,0.257,0.145,0.090,north,1.0,Yes
2019/11/27,13:50,0.184,0.167,0.276,0.257,0.255,0.144,0.090,north-northeast,1.2,No
2019/11/27,14:00,0.182,0.167,0.275,0.255,0.253,-,0.089,north,0.9,No
2019/11/27,14:10,0.181,0.166,0.275,0.257,0.255,-,0.088,north,1.5,No
2019/11/27,14:20,0.182,0.165,0.274,0.256,0.254,-,0.088,north,1.3,No
2019/11/27,14:30,0.180,0.164,0.272,0.255,0.254,-,0.088,north,1.7,No
2019/11/27,14:40,0.179,0.163,0.274,0.255,0.253,-,0.087,north,2.0,No
2019/11/27,14:50,0.180,0.164,0.272,0.254,0.253,-,0.086,north-northwest,2.8,No
2019/11/27,15:00,0.179,0.165,0.270,0.254,0.253,-,0.087,north-northwest,2.9,Yes
2019/11/27,15:10,0.179,0.163,0.271,0.255,0.253,0.138,0.087,north-northwest,3.7,No
2019/11/27,15:20,0.180,0.164,0.273,0.254,0.252,0.138,0.086,north-northwest,3.8,No
2019/11/27,15:30,0.180,0.164,0.272,0.253,0.254,0.140,0.087,northwest,3.4,No
2019/11/27,15:40,0.181,0.163,0.273,0.255,0.253,0.137,0.087,north-northwest,4.0,No
2019/11/27,15:50,0.180,0.164,0.271,0.255,0.253,0.138,0.087,north-northwest,4.5,No
2019/11/27,16:00,0.179,0.163,0.272,0.254,0.254,0.137,0.087,north-northwest,4.3,No
2019/11/27,16:10,0.180,0.162,0.274,0.254,0.253,0.138,0.086,north-northwest,5.0,No
2019/11/27,16:20,0.179,0.162,0.272,0.255,0.254,0.137,0.087,north-northwest,4.7,No
2019/11/27,16:30,0.179,0.162,0.271,0.254,0.253,0.139,0.086,north-northwest,5.4,No
2019/11/27,16:40,0.180,0.163,0.272,0.254,0.253,0.138,0.087,north-northwest,4.6,No
2019/11/27,16:50,0.179,0.163,0.272,0.255,0.253,0.139,0.086,north-northwest,3.8,Yes
2019/11/27,17:00,0.180,0.163,0.272,0.256,0.253,0.140,0.087,north-northwest,3.6,Yes
2019/11/27,17:10,0.183,0.166,0.276,0.257,0.255,0.141,0.090,north-northwest,4.1,Yes
2019/11/27,17:20,0.181,0.168,0.274,0.256,0.256,0.142,0.090,north-northwest,4.5,No
2019/11/27,17:30,0.181,0.166,0.274,0.257,0.255,0.141,0.089,north-northwest,5.5,No
2019/11/27,17:40,0.182,0.165,0.275,0.258,0.255,0.140,0.088,north,5.5,No
2019/11/27,17:50,0.181,0.165,0.274,0.254,0.256,0.139,0.090,north,5.7,No
2019/11/27,18:00,0.181,0.164,0.273,0.256,0.254,0.140,0.089,north,4.8,No
2019/11/27,18:10,0.180,0.165,0.273,0.255,0.254,0.139,0.088,north-northwest,4.5,No
2019/11/27,18:20,0.180,0.165,0.272,0.254,0.253,0.139,0.088,north,5.1,No
2019/11/27,18:30,0.181,0.163,0.272,0.254,0.254,0.139,0.088,north,4.7,No
2019/11/27,18:40,0.180,0.163,0.272,0.255,0.253,0.139,0.087,north,4.6,No
2019/11/27,18:50,0.179,0.165,0.273,0.252,0.255,0.139,0.087,north,4.6,No
2019/11/27,19:00,0.180,0.164,0.271,0.255,0.254,0.139,0.087,north,4.3,No
2019/11/27,19:10,0.180,0.163,0.272,0.254,0.252,0.138,0.086,north,4.2,No
2019/11/27,19:20,0.179,0.163,0.272,0.254,0.254,0.139,0.087,north,3.9,No
2019/11/27,19:30,0.180,0.162,0.273,0.254,0.252,0.139,0.088,north,4.1,No
2019/11/27,19:40,0.179,0.163,0.271,0.255,0.253,0.138,0.087,north,3.8,No
2019/11/27,19:50,0.179,0.164,0.273,0.254,0.253,0.138,0.087,north,4.2,No
2019/11/27,20:00,0.179,0.162,0.273,0.256,0.253,0.138,0.087,north,4.1,No
2019/11/27,20:10,0.180,0.163,0.271,0.254,0.255,0.138,0.087,north-northwest,3.6,No
2019/11/27,20:20,0.179,0.163,0.273,0.254,0.255,0.139,0.087,north-northwest,3.6,No
2019/11/27,20:30,0.181,0.163,0.272,0.256,0.254,0.139,0.087,north-northwest,3.8,No
2019/11/27,20:40,0.179,0.164,0.271,0.256,0.256,0.139,0.087,north-northwest,4.8,No
2019/11/27,20:50,0.179,0.164,0.271,0.255,0.255,0.138,0.088,north-northwest,5.2,No
2019/11/27,21:00,0.180,0.162,0.272,0.255,0.254,0.138,0.088,north-northwest,6.0,No
2019/11/27,21:10,0.180,0.164,0.272,0.254,0.255,0.138,0.087,north-northwest,5.5,No
2019/11/27,21:20,0.178,0.164,0.271,0.254,0.254,0.139,0.087,north-northwest,5.1,No
2019/11/27,21:30,0.180,0.163,0.272,0.255,0.253,0.138,0.087,north-northwest,5.6,No
2019/11/27,21:40,0.179,0.165,0.271,0.254,0.253,0.140,0.086,north-northwest,6.4,No
2019/11/27,21:50,0.179,0.162,0.271,0.255,0.252,0.138,0.087,north,6.0,No
2019/11/27,22:00,0.181,0.162,0.273,0.254,0.254,0.139,0.087,north,6.8,No
2019/11/27,22:10,0.179,0.164,0.271,0.255,0.254,0.139,0.087,north,6.0,No
2019/11/27,22:20,0.180,0.163,0.273,0.254,0.253,0.139,0.087,north,5.7,No
2019/11/27,22:30,0.180,0.163,0.271,0.255,0.253,0.139,0.087,north,5.8,No
2019/11/27,22:40,0.180,0.164,0.272,0.256,0.255,0.139,0.086,north,5.8,No
2019/11/27,22:50,0.180,0.162,0.272,0.254,0.252,0.138,0.087,north,5.2,No
2019/11/27,23:00,0.179,0.163,0.270,0.253,0.253,0.139,0.086,north,6.1,No
2019/11/27,23:10,0.178,0.163,0.271,0.255,0.253,0.138,0.087,north-northwest,6.2,No
2019/11/27,23:20,0.179,0.162,0.273,0.253,0.253,0.137,0.087,north-northwest,6.4,No
2019/11/27,23:30,0.179,0.163,0.272,0.255,0.254,0.137,0.086,north-northwest,5.4,No
2019/11/27,23:40,0.178,0.163,0.272,0.253,0.252,0.138,0.087,north-northwest,5.2,No
2019/11/27,23:50,0.180,0.163,0.273,0.254,0.254,0.139,0.087,north-northwest,5.7,Yes
